Wind_Speed
36 36 36 36 37 37 37 37 36 36 37 36 36 36 36 36 37 37 36 36 36 35 35 34 34 34 35 34 34 34 34 34 34 34 33 33 33 33 33 33 33 33 33
38 38 38 37 38 38 38 38 37 37 38 37 37 38 38 38 38 38 37 37 37 37 37 37 37 36 36 37 36 37 36 36 36 36 36 36 36 36 36 36 36 36 36
39 39 39 39 39 39 39 39 39 38 39 38 39 39 39 39 39 39 38 38 38 38 38 39 39 39 38 38 39 39 39 39 39 39 39 38 38 38 38 38 38 38 38
40 40 40 40 40 40 41 41 40 40 39 39 39 39 40 39 40 40 40 39 39 39 40 40 40 40 40 41 40 41 41 41 41 41 41 41 41 41 41 41 40 40 40
41 41 41 41 40 41 42 43 43 42 41 40 40 41 40 40 40 40 40 40 40 41 41 41 41 42 42 42 42 42 43 43 42 43 43 43 44 44 44 44 43 42 41
42 41 41 41 41 41 42 42 43 44 43 42 42 41 41 41 40 40 40 41 41 41 42 43 43 43 44 44 44 44 44 44 44 44 44 45 45 46 45 44 44 43 42
42 42 42 42 42 43 43 43 43 43 43 44 43 42 42 42 42 41 40 40 41 42 43 44 44 45 45 45 45 45 45 46 46 46 46 46 46 46 46 45 45 44 44
42 42 43 43 43 42 42 43 43 43 44 44 43 43 42 42 42 43 42 42 43 44 44 45 46 46 46 46 46 47 47 47 47 48 47 46 45 46 46 46 46 45 45
42 43 43 43 43 42 41 42 43 43 43 43 44 44 43 43 43 43 44 44 44 45 45 46 46 47 47 47 47 47 48 49 49 48 47 46 45 46 47 48 47 47 47
42 43 43 43 42 42 42 42 42 42 42 42 43 43 43 43 43 43 44 44 44 45 46 47 47 48 48 48 48 48 49 49 49 48 48 48 47 48 48 49 49 50 50
42 42 42 41 42 41 41 42 42 42 42 42 42 42 43 43 44 44 44 45 46 46 46 47 48 49 49 49 49 49 49 49 49 49 49 49 50 50 50 51 51 51 52
42 41 41 41 40 40 41 42 42 43 43 43 43 43 43 44 44 45 45 46 46 47 47 47 48 48 49 50 50 49 49 48 49 49 50 51 51 52 52 53 53 53 53
41 41 40 41 41 41 42 43 43 43 43 43 43 44 45 45 46 46 47 47 48 48 48 48 48 49 49 49 49 49 49 49 50 50 51 51 52 53 53 53 53 53 53
41 42 41 42 42 42 42 42 43 43 43 43 44 45 45 46 47 47 48 49 49 48 49 49 50 50 49 49 49 49 49 50 50 51 51 52 52 53 53 53 53 53 53
41 42 42 41 41 41 42 42 42 42 42 43 44 45 45 45 46 47 48 49 49 49 49 50 51 50 50 49 50 50 50 50 51 51 52 52 52 52 53 53 53 53 53
40 41 41 41 42 41 41 41 42 42 43 44 44 44 44 45 46 47 47 48 49 49 48 48 48 48 48 49 49 49 50 51 51 52 52 52 52 52 53 52 52 52 52
41 41 41 41 41 40 41 41 41 42 43 43 44 44 45 46 46 47 47 48 48 48 47 47 46 46 47 48 48 49 50 51 52 52 52 53 52 52 51 52 52 51 50
41 41 41 40 40 40 41 41 41 42 42 42 43 44 44 45 45 45 46 46 46 46 46 45 45 45 46 47 48 50 51 52 52 52 52 52 52 51 51 50 49 49 49
42 42 41 41 40 41 41 41 41 41 42 42 42 42 43 43 44 44 44 44 44 45 45 45 44 45 45 46 48 49 50 50 51 51 51 52 51 51 51 50 49 48 48
40 40 41 41 41 40 41 41 40 40 41 41 41 42 42 43 43 43 42 43 43 44 44 44 44 45 45 46 47 47 47 48 48 49 50 50 50 50 50 49 49 48 48
39 39 40 40 40 40 40 40 40 40 40 41 41 42 42 42 42 42 42 43 43 43 44 44 45 45 45 45 46 46 46 47 47 48 48 48 48 48 49 49 49 48 47
38 38 38 39 40 40 39 40 40 40 40 41 41 41 41 41 41 41 41 42 43 43 43 43 43 43 44 44 45 45 46 46 46 47 47 46 46 46 47 48 47 48 47
37 37 37 38 38 38 38 38 38 39 40 41 40 40 40 40 41 41 41 42 42 43 43 43 42 42 43 43 44 45 45 45 45 45 45 44 44 44 44 46 46 46 46
36 36 36 36 36 36 37 37 37 38 39 39 39 40 40 40 40 41 41 42 42 42 42 43 42 43 43 44 44 44 44 43 43 43 44 43 42 42 42 43 44 44 44
36 35 35 34 34 35 36 37 37 37 38 38 38 39 39 39 40 41 41 42 42 42 43 43 43 43 44 44 43 43 42 41 41 41 42 42 42 42 42 41 41 41 41
34 34 34 33 34 34 35 36 36 37 37 37 38 38 39 39 39 40 41 41 41 41 42 42 42 42 42 42 42 41 41 41 40 40 40 41 41 41 40 40 39 39 39
Wind_Direction
268 266 266 267 267 268 267 267 267 267 268 269 269 270 270 270 271 270 269 268 268 268 268 268 269 269 270 270 270 269 269 270 271 271 272 272 273 274 275 275 275 275 275
268 268 267 267 267 268 268 268 268 268 268 268 269 271 271 271 271 270 269 269 269 269 268 267 268 269 270 270 270 270 270 270 271 271 271 272 272 273 274 275 275 275 274
268 269 267 267 268 268 268 268 268 268 267 268 269 270 271 271 270 271 270 270 270 269 269 268 268 268 269 270 270 270 270 270 271 271 271 271 272 273 273 274 275 275 274
269 269 268 267 268 268 269 269 269 268 267 267 269 270 271 272 271 270 270 270 270 270 270 270 270 269 269 269 270 270 270 271 271 271 271 271 272 272 273 273 273 274 274
268 269 269 268 269 270 270 269 268 268 268 269 270 270 271 272 272 271 270 269 270 269 269 270 270 270 270 270 270 270 270 271 271 271 271 272 272 272 273 273 272 272 273
268 268 268 268 269 270 269 269 269 269 269 270 270 270 270 271 272 272 272 270 270 270 271 270 270 270 271 271 270 270 270 270 270 271 272 272 272 271 272 272 272 271 272
269 268 268 268 269 270 270 270 269 269 270 271 271 270 271 271 272 273 273 272 271 271 272 272 271 271 271 271 270 269 270 271 271 271 271 271 272 271 271 271 271 270 271
271 268 268 268 270 271 271 270 270 270 270 271 271 271 271 272 272 273 273 273 273 272 272 272 272 272 272 272 271 270 271 271 271 271 271 271 271 270 271 271 271 271 271
271 268 267 268 269 270 270 271 271 270 271 272 272 273 273 272 272 272 273 273 273 273 273 273 273 272 272 272 272 272 272 272 271 271 270 270 269 270 270 271 271 272 271
272 271 268 268 270 271 272 272 271 270 271 272 272 273 274 275 274 273 273 273 274 274 273 274 274 273 273 273 272 272 272 272 271 270 269 269 270 270 270 270 271 271 271
271 270 269 269 271 271 273 273 272 271 271 272 273 274 275 275 275 275 274 274 274 275 275 276 275 274 273 273 272 273 272 272 271 271 270 270 270 271 271 271 270 270 270
272 271 270 270 272 271 272 271 271 271 271 272 273 274 275 276 276 275 275 275 275 275 276 276 276 275 275 274 273 272 272 272 272 272 271 271 270 271 271 272 271 270 270
271 271 270 271 271 270 271 271 271 272 272 273 274 275 276 276 276 275 276 276 276 276 276 276 276 276 276 275 273 273 272 272 273 273 273 273 272 272 272 272 272 271 271
271 271 271 272 272 271 271 271 271 273 274 275 275 276 276 276 276 276 276 277 277 277 276 276 277 277 277 275 273 272 272 273 274 274 274 274 274 273 272 272 272 272 272
271 272 271 271 272 271 271 271 272 273 275 276 276 277 277 276 276 276 277 278 279 278 277 277 277 277 276 274 273 272 273 274 273 273 274 274 274 273 273 272 271 271 271
272 272 272 271 271 271 271 273 274 275 275 276 277 277 277 277 278 278 279 280 279 280 279 279 278 276 275 274 274 273 272 273 274 274 275 274 274 273 273 273 272 271 271
272 273 274 273 272 272 274 274 275 276 276 276 277 277 277 278 279 279 279 280 280 280 281 280 279 277 276 275 274 274 274 274 274 275 275 274 273 274 274 273 272 271 271
272 274 275 274 274 273 274 275 275 276 276 277 277 278 278 279 280 280 280 281 281 282 282 281 280 278 278 277 277 276 276 276 275 274 274 274 274 273 273 273 273 272 271
273 273 273 274 274 274 275 276 276 277 278 278 279 280 280 281 281 282 282 283 284 284 284 283 281 280 280 279 279 278 278 278 276 274 274 273 273 273 272 272 272 272 271
274 274 274 275 275 276 276 277 277 278 279 280 281 281 282 282 282 282 283 284 284 284 284 283 282 281 281 281 281 280 279 278 276 274 274 273 272 272 271 272 271 271 271
274 275 276 275 276 276 277 277 277 278 279 281 282 282 283 283 282 283 283 284 284 285 285 285 283 283 283 282 282 281 281 279 277 276 274 274 273 272 272 272 271 270 270
275 276 275 275 275 276 276 276 278 279 280 282 283 283 283 283 283 284 284 285 286 286 286 286 285 284 284 284 283 282 282 280 278 276 275 274 274 273 272 271 270 270 270
276 275 275 275 275 275 276 276 278 279 281 283 283 284 284 284 285 285 285 286 287 287 287 286 286 286 286 285 285 283 283 282 280 278 276 275 275 275 274 273 271 271 271
276 275 275 275 276 275 275 276 278 280 282 284 284 285 285 285 285 285 286 286 288 288 288 287 286 286 286 287 287 285 284 282 281 281 279 277 275 275 275 276 275 273 271
275 275 275 276 277 276 277 278 279 280 282 283 285 286 286 285 285 286 286 287 287 288 288 288 287 287 287 286 286 285 284 282 281 280 280 279 277 276 277 277 276 274 271
274 274 275 276 277 278 279 280 281 281 282 283 285 286 286 286 285 286 287 288 288 288 288 289 288 287 286 286 284 284 283 282 281 281 281 280 279 278 276 276 275 274 273
Height
5785 5785 5785 5785 5785 5785 5785 5785 5785 5785 5785 5786 5786 5787 5787 5788 5789 5789 5790 5790 5791 5792 5792 5792 5793 5794 5794 5795 5795 5795 5795 5796 5796 5796 5796 5795 5795 5795 5795 5794 5794 5793 5793
5776 5776 5776 5776 5775 5775 5775 5775 5776 5776 5776 5776 5777 5777 5778 5778 5779 5780 5780 5781 5782 5782 5783 5783 5784 5785 5785 5786 5786 5786 5787 5787 5787 5787 5787 5787 5787 5787 5786 5786 5785 5785 5785
5767 5767 5767 5766 5766 5766 5766 5766 5766 5766 5766 5767 5767 5768 5768 5769 5769 5770 5770 5771 5772 5773 5773 5774 5774 5775 5776 5776 5777 5777 5777 5777 5777 5777 5777 5777 5777 5777 5777 5776 5776 5776 5775
5756 5756 5756 5756 5756 5756 5756 5756 5756 5756 5756 5757 5757 5758 5758 5759 5759 5760 5760 5761 5762 5763 5763 5764 5764 5765 5765 5766 5766 5767 5767 5767 5767 5767 5767 5767 5767 5767 5767 5766 5766 5766 5765
5746 5746 5746 5746 5746 5746 5745 5745 5746 5746 5746 5746 5747 5748 5748 5749 5749 5749 5750 5750 5751 5752 5753 5754 5754 5754 5755 5755 5755 5756 5756 5756 5756 5756 5756 5756 5756 5756 5756 5755 5755 5755 5754
5735 5735 5735 5736 5736 5736 5735 5735 5735 5735 5736 5736 5737 5737 5738 5738 5739 5739 5739 5740 5741 5741 5742 5743 5743 5743 5744 5744 5744 5744 5745 5745 5745 5745 5745 5745 5744 5744 5744 5744 5743 5743 5743
5724 5725 5725 5725 5725 5725 5724 5724 5725 5725 5725 5726 5726 5727 5727 5728 5728 5729 5729 5730 5730 5731 5731 5731 5732 5732 5732 5732 5733 5733 5733 5733 5733 5733 5733 5732 5732 5732 5732 5732 5732 5732 5732
5714 5714 5714 5715 5714 5714 5714 5714 5714 5714 5715 5715 5716 5716 5718 5719 5719 5719 5719 5719 5720 5720 5720 5720 5720 5720 5720 5720 5720 5720 5720 5720 5720 5720 5720 5720 5720 5720 5720 5720 5720 5720 5720
5704 5704 5704 5704 5704 5703 5703 5703 5704 5704 5705 5705 5705 5706 5706 5708 5709 5709 5709 5709 5709 5709 5708 5708 5707 5708 5708 5708 5708 5707 5707 5707 5707 5707 5707 5707 5707 5707 5708 5707 5707 5707 5707
5694 5694 5693 5694 5694 5693 5693 5693 5693 5694 5694 5694 5694 5694 5695 5695 5696 5698 5699 5698 5697 5697 5696 5696 5695 5695 5695 5695 5695 5694 5694 5694 5694 5694 5694 5694 5694 5694 5694 5694 5694 5694 5693
5684 5684 5684 5684 5684 5683 5683 5683 5683 5683 5684 5684 5684 5684 5684 5684 5684 5685 5687 5687 5686 5685 5684 5684 5683 5682 5682 5681 5681 5681 5680 5680 5680 5680 5681 5681 5681 5681 5680 5680 5680 5679 5679
5675 5674 5674 5674 5674 5674 5674 5674 5673 5673 5673 5674 5674 5674 5674 5674 5674 5673 5674 5674 5674 5673 5672 5671 5670 5669 5668 5667 5667 5667 5666 5666 5666 5667 5667 5667 5666 5666 5666 5665 5665 5664 5664
5665 5665 5665 5665 5664 5664 5664 5663 5663 5663 5663 5663 5663 5663 5663 5662 5662 5661 5661 5661 5661 5661 5660 5659 5657 5656 5655 5653 5653 5653 5652 5652 5652 5652 5652 5652 5651 5651 5650 5650 5649 5648 5648
5655 5655 5655 5655 5654 5654 5653 5653 5653 5653 5653 5653 5652 5652 5651 5651 5650 5649 5649 5648 5648 5648 5647 5646 5644 5642 5641 5640 5639 5639 5638 5638 5638 5637 5637 5637 5636 5635 5634 5634 5633 5633 5632
5645 5645 5645 5644 5644 5644 5643 5643 5643 5643 5642 5642 5641 5641 5640 5639 5638 5637 5636 5634 5634 5634 5634 5632 5630 5628 5627 5626 5626 5625 5624 5624 5623 5622 5622 5621 5621 5620 5619 5618 5617 5617 5616
5635 5635 5635 5634 5634 5634 5633 5633 5632 5632 5631 5631 5630 5629 5628 5627 5626 5625 5623 5622 5620 5619 5618 5618 5616 5614 5612 5612 5611 5610 5610 5609 5608 5607 5606 5605 5605 5604 5603 5602 5601 5601 5600
5625 5625 5625 5624 5624 5623 5623 5622 5622 5621 5620 5620 5619 5618 5617 5615 5614 5612 5610 5609 5607 5605 5604 5604 5602 5600 5598 5598 5597 5596 5595 5594 5593 5592 5590 5590 5589 5589 5588 5587 5586 5585 5586
5615 5614 5614 5614 5613 5613 5612 5612 5611 5611 5610 5609 5608 5607 5605 5604 5602 5600 5598 5596 5594 5592 5591 5590 5589 5587 5585 5584 5583 5581 5580 5579 5578 5576 5575 5574 5574 5573 5572 5571 5571 5571 5571
5604 5604 5604 5603 5603 5602 5602 5601 5601 5600 5599 5598 5596 5595 5593 5592 5590 5588 5586 5584 5582 5580 5578 5577 5576 5574 5572 5570 5569 5567 5565 5564 5562 5561 5560 5559 5559 5558 5557 5556 5556 5557 5557
5594 5593 5593 5593 5592 5592 5591 5591 5590 5589 5588 5586 5585 5583 5582 5580 5579 5576 5574 5572 5570 5568 5566 5564 5563 5561 5559 5557 5555 5553 5552 5549 5548 5546 5545 5544 5544 5543 5542 5543 5543 5543 5543
5584 5583 5583 5582 5582 5581 5580 5579 5579 5578 5577 5576 5574 5572 5571 5569 5566 5564 5563 5560 5558 5556 5554 5552 5550 5548 5546 5544 5541 5539 5538 5536 5534 5532 5531 5530 5530 5529 5528 5528 5528 5528 5528
5574 5573 5573 5572 5571 5571 5570 5569 5568 5567 5566 5565 5563 5561 5559 5557 5555 5553 5551 5549 5546 5544 5541 5539 5537 5535 5533 5530 5528 5526 5524 5523 5523 5521 5518 5517 5516 5515 5515 5514 5514 5514 5514
5563 5563 5562 5562 5561 5560 5559 5558 5557 5556 5555 5554 5552 5550 5548 5546 5544 5541 5539 5537 5535 5532 5529 5527 5525 5522 5520 5518 5516 5514 5511 5509 5507 5506 5504 5505 5503 5502 5501 5500 5500 5500 5500
5553 5552 5552 5551 5550 5550 5549 5548 5547 5546 5545 5543 5541 5539 5537 5535 5532 5530 5528 5526 5523 5520 5517 5515 5513 5510 5508 5505 5503 5501 5498 5496 5495 5493 5491 5492 5491 5490 5489 5488 5487 5486 5486
5543 5542 5541 5541 5540 5539 5538 5537 5536 5536 5534 5532 5530 5528 5526 5524 5521 5519 5517 5515 5512 5509 5505 5503 5500 5497 5495 5492 5490 5488 5486 5484 5484 5482 5479 5479 5479 5478 5477 5476 5474 5473 5473
5532 5532 5531 5531 5530 5529 5528 5527 5526 5525 5524 5522 5520 5518 5515 5513 5510 5507 5505 5503 5500 5497 5494 5491 5488 5485 5482 5480 5477 5475 5474 5472 5471 5471 5469 5467 5466 5465 5466 5465 5463 5462 5461